Hourly Weather Roundup
Issued by NWS Central Illinois

Home | Current Version | Previous Version | Text Only | Print | Product List | Glossary On
Versions: 1 2 3 4 5 6 7 8 9 10 11 12 13 14 15 16 17 18 19 20 21 22 23 24 25 26 27 28 29 30 31 32 33 34 35 36 37 38 39 40 41 42 43 44 45 46 47 48 49 50
000
NZUS43 KILX 031910
HWRILX

AREA WEATHER ROUNDUP
NATIONAL WEATHER SERVICE, LINCOLN IL
200 PM CDT MON AUG 03 2015


CITY           SKY/WX    TMP DP  RH WIND       PRES   REMARKS
BLOOMINGTON    MOSUNNY   82  65  56 NW10      29.92R HX  84
CHAMPAIGN      MOSUNNY   85  67  54 W12       29.89R HX  87
DANVILLE       MOSUNNY   85  69  58 W9        29.85S HX  89
DECATUR        PTSUNNY   86  64  47 W15G21    29.90R HX  87
EFFINGHAM      SUNNY     90  62  38 W10       29.90S HX  90
FLORA          SUNNY     90  65  43 W9G17     29.89S HX  91
GALESBURG      SUNNY     80  59  49 MISG      29.93S HX  80
JACKSONVILLE   MOSUNNY   84  65  51 NW6       29.92R HX  86
LACON          SUNNY     79  57  47 W8        29.90S HX  80
LAWRENCEVILLE  SUNNY     92  67  43 W15       29.87S HX  95
LITCHFIELD     SUNNY     85  65  50 NW7       29.91S HX  87
$$


CITY           SKY/WX    TMP DP  RH WIND       PRES   REMARKS
LINCOLN        MOSUNNY   85  63  46 NW6       29.90R HX  86
MACOMB         SUNNY     80  60  51 N6        29.96R HX  81
MATTOON        MOSUNNY   89  62  40 NW15      29.88S HX  89
MT CARMEL AP   SUNNY     90  64  43 W12G17    29.87S HX  91
OLNEY-NOBLE AP SUNNY     90  70  51 NW12      29.88S HX  95
PARIS          MOSUNNY   86  69  55 W14G21    29.88S HX  90
PEORIA         SUNNY     83  59  44 N7        29.91S HX  83
PONTIAC        SUNNY     81  63  55 W10G16    29.90S HX  82
RANTOUL        MOSUNNY   87  67  52 W9        29.88S HX  90
ROBINSON       SUNNY     88  69  51 W9        29.88S HX  92
SPRINGFIELD    MOSUNNY   86  68  54 W8        29.91S HX  89
TAYLORVILLE    MOSUNNY   82  68  61 W8        29.91R HX  85
$$

...REGIONAL REPORTS...


CITY           SKY/WX    TMP DP  RH WIND       PRES   REMARKS
CHICAGO O`HARE MOSUNNY   80  48  32 NW13      29.86S
KANKAKEE       MOSUNNY   83  61  47 NW10G20   29.87S HX  83
MOLINE         SUNNY     82  53  36 NW8       29.91F HX  81
MOUNT STERLING NOT AVBL
MOUNT VERNON   MOSUNNY   91  66  43 W9        29.90S HX  94
PITTSFIELD     PTSUNNY   84  65  52 W7        29.95R HX  86
QUINCY         MOSUNNY   82  63  52 W7        29.94R HX  83
ROCKFORD       MOSUNNY   81  50  33 NW9G20    29.89F HX  80
$$


CITY           SKY/WX    TMP DP  RH WIND       PRES   REMARKS
BURLINGTON     SUNNY     81  59  47 VRB6      29.93S HX  81
CEDAR RAPIDS   SUNNY     77  58  51 NW9       29.93F
DES MOINES     MOSUNNY   82  54  37 N8        29.95S HX  81
KIRKSVILLE     LGT RAIN  70  62  76 NW7       30.01R
OTTUMWA        MOSUNNY   79  58  48 N5        29.94S HX  80
ST LOUIS       MOSUNNY   93  65  39 NW10      29.92S HX  95
$$


CITY           SKY/WX    TMP DP  RH WIND       PRES   REMARKS
TERRE HAUTE    MOSUNNY   89  68  49 W9        29.87R HX  93
EVANSVILLE     MOSUNNY   92  67  43 W12       29.88F HX  95
INDIANAPOLIS   PTSUNNY   89  67  47 W16       29.84R HX  92
LAFAYETTE      MOSUNNY   84  66  54 NW8       29.85S HX  86
MADISON        MOSUNNY   78  48  34 W14G22    29.87S
MILWAUKEE      MOSUNNY   79  45  29 W17G29    29.84S
$$




USA.gov is the U.S. government's official web portal to all federal, state and local government web resources and services.